VCP34I EGSS-LEMH

Flight info

Callsign VCP34I
Flight time 1h 58m
Altitude 35000
Route NUGBO M183 SILVA Q41 COWLY UT71 VAPID UN859 SOPIL DCT BALAN DCT EVPOK DCT NARAK DCT GAI DCT LOMRA DCT ROCAN DCT GEANT N727 SARGO
Aircraft B738/M-SDE2E3FGHIRWXY/LB1

Departure

Time 2026-04-26 13:38
Airport London Stansted Airport (EGSS)

Arrival

Time 2026-04-26 15:36
Airport Menorca Airport (LEMH)
Time Latitude Longitude Altitude Speed Heading
2026-04-26 13:03 51.88926 0.25549 335 ft 0 kts 222°
2026-04-26 13:23 51.88932 0.25559 336 ft 2 kts 224°
2026-04-26 13:24 51.88944 0.25576 336 ft 2 kts 222°
2026-04-26 13:24 51.88954 0.25594 337 ft 2 kts 252°
2026-04-26 13:24 51.88954 0.25619 337 ft 2 kts 290°
2026-04-26 13:24 51.88946 0.25638 338 ft 2 kts 319°
2026-04-26 13:25 51.88937 0.25651 338 ft 0 kts 310°
2026-04-26 13:25 51.88936 0.25653 338 ft 0 kts 310°
2026-04-26 13:25 51.88936 0.25652 338 ft 0 kts 310°
2026-04-26 13:26 51.88937 0.25652 338 ft 0 kts 310°
2026-04-26 13:27 51.88956 0.25619 337 ft 8 kts 313°
2026-04-26 13:27 51.89012 0.25523 337 ft 13 kts 313°
2026-04-26 13:27 51.89073 0.25417 337 ft 11 kts 312°
2026-04-26 13:27 51.89121 0.25332 338 ft 9 kts 312°
2026-04-26 13:28 51.89150 0.25260 339 ft 7 kts 274°
2026-04-26 13:28 51.89115 0.25179 337 ft 10 kts 223°
2026-04-26 13:28 51.89047 0.25075 334 ft 16 kts 223°
2026-04-26 13:28 51.88952 0.24932 332 ft 20 kts 222°
2026-04-26 13:29 51.88837 0.24761 330 ft 24 kts 223°
2026-04-26 13:29 51.88749 0.24631 328 ft 26 kts 222°
2026-04-26 13:29 51.88580 0.24375 329 ft 24 kts 223°
2026-04-26 13:29 51.88462 0.24199 329 ft 22 kts 222°
2026-04-26 13:30 51.88358 0.24043 332 ft 19 kts 223°
2026-04-26 13:30 51.88269 0.23910 334 ft 15 kts 221°
2026-04-26 13:30 51.88195 0.23802 336 ft 13 kts 224°
2026-04-26 13:30 51.88127 0.23696 338 ft 14 kts 222°
2026-04-26 13:31 51.88042 0.23571 339 ft 18 kts 222°
2026-04-26 13:31 51.87938 0.23415 339 ft 22 kts 223°
2026-04-26 13:31 51.87820 0.23236 339 ft 22 kts 223°
2026-04-26 13:31 51.87735 0.23057 337 ft 18 kts 280°
2026-04-26 13:32 51.87790 0.22901 338 ft 14 kts 256°
2026-04-26 13:32 51.87719 0.22790 337 ft 15 kts 222°
2026-04-26 13:32 51.87623 0.22646 336 ft 21 kts 222°
2026-04-26 13:32 51.87518 0.22487 336 ft 20 kts 223°
2026-04-26 13:33 51.87420 0.22330 334 ft 19 kts 238°
2026-04-26 13:33 51.87435 0.22149 334 ft 9 kts 311°
2026-04-26 13:33 51.87438 0.22145 334 ft 0 kts 312°
2026-04-26 13:36 51.87438 0.22144 334 ft 0 kts 312°
2026-04-26 13:36 51.87465 0.22096 334 ft 8 kts 312°
2026-04-26 13:36 51.87508 0.22021 333 ft 9 kts 324°
2026-04-26 13:36 51.87536 0.22037 334 ft 0 kts 41°
2026-04-26 13:37 51.87546 0.22051 334 ft 14 kts 41°
2026-04-26 13:37 51.87800 0.22431 339 ft 83 kts 42°
2026-04-26 13:38 51.88372 0.23288 343 ft 140 kts 42°
2026-04-26 13:38 51.89200 0.24526 473 ft 173 kts 44°
2026-04-26 13:38 51.90062 0.25824 1160 ft 170 kts 44°
2026-04-26 13:38 51.90930 0.27116 1782 ft 174 kts 44°
2026-04-26 13:39 51.91818 0.28453 2324 ft 178 kts 44°
2026-04-26 13:39 51.92834 0.29737 2709 ft 192 kts 25°
2026-04-26 13:39 51.94177 0.30025 3089 ft 206 kts 352°
2026-04-26 13:39 51.95564 0.29146 3445 ft 225 kts 327°
2026-04-26 13:40 51.96682 0.27284 3835 ft 242 kts 298°
2026-04-26 13:40 51.97195 0.24657 4382 ft 253 kts 279°
2026-04-26 13:40 51.97419 0.21750 4852 ft 266 kts 276°
2026-04-26 13:40 51.97646 0.18782 5509 ft 271 kts 278°
2026-04-26 13:41 51.97935 0.15758 6265 ft 272 kts 279°
2026-04-26 13:41 51.98256 0.12761 6994 ft 273 kts 280°
2026-04-26 13:41 51.98592 0.09729 7713 ft 275 kts 280°
2026-04-26 13:41 51.98887 0.06704 8380 ft 278 kts 275°
2026-04-26 13:42 51.98819 0.03577 9064 ft 280 kts 261°
2026-04-26 13:42 51.98424 0.00499 9721 ft 283 kts 257°
2026-04-26 13:42 51.97942 -0.02626 10405 ft 285 kts 256°
2026-04-26 13:42 51.97471 -0.05785 10836 ft 296 kts 257°
2026-04-26 13:43 51.97013 -0.09101 11163 ft 310 kts 258°
2026-04-26 13:43 51.96556 -0.12570 11466 ft 324 kts 258°
2026-04-26 13:43 51.96086 -0.16206 11791 ft 338 kts 258°
2026-04-26 13:43 51.95598 -0.19983 12238 ft 349 kts 258°
2026-04-26 13:44 51.95094 -0.23860 12855 ft 354 kts 258°
2026-04-26 13:44 51.94585 -0.27753 13570 ft 356 kts 258°
2026-04-26 13:44 51.94069 -0.31683 14274 ft 359 kts 258°
2026-04-26 13:44 51.93550 -0.35616 14960 ft 362 kts 258°
2026-04-26 13:45 51.93022 -0.39614 15648 ft 366 kts 258°
2026-04-26 13:45 51.92485 -0.43663 16319 ft 369 kts 258°
2026-04-26 13:45 51.91946 -0.47716 16961 ft 373 kts 258°
2026-04-26 13:45 51.91396 -0.51835 17587 ft 377 kts 258°
2026-04-26 13:46 51.90848 -0.55938 18209 ft 380 kts 258°
2026-04-26 13:46 51.90282 -0.60158 18857 ft 383 kts 258°
2026-04-26 13:46 51.89720 -0.64331 19439 ft 386 kts 258°
2026-04-26 13:46 51.89144 -0.68605 20041 ft 389 kts 257°
2026-04-26 13:47 51.88562 -0.72902 20633 ft 392 kts 257°
2026-04-26 13:47 51.87984 -0.77159 21207 ft 395 kts 257°
2026-04-26 13:47 51.87318 -0.81480 21752 ft 397 kts 254°
2026-04-26 13:47 51.86368 -0.85692 22278 ft 401 kts 245°
2026-04-26 13:48 51.84984 -0.89610 22804 ft 404 kts 236°
2026-04-26 13:48 51.83232 -0.93171 23305 ft 407 kts 229°
2026-04-26 13:48 51.81225 -0.96381 23786 ft 412 kts 223°
2026-04-26 13:48 51.78968 -0.99226 24296 ft 416 kts 215°
2026-04-26 13:49 51.76413 -1.01480 24825 ft 420 kts 206°
2026-04-26 13:49 51.73685 -1.03070 25276 ft 425 kts 198°
2026-04-26 13:49 51.70822 -1.04190 25793 ft 428 kts 194°
2026-04-26 13:49 51.67890 -1.05085 26256 ft 431 kts 192°
2026-04-26 13:50 51.64927 -1.05864 26734 ft 433 kts 191°
2026-04-26 13:50 51.61901 -1.06398 27212 ft 437 kts 186°
2026-04-26 13:50 51.58879 -1.06544 27668 ft 440 kts 183°
2026-04-26 13:50 51.55817 -1.06467 28107 ft 443 kts 181°
2026-04-26 13:51 51.52737 -1.06281 28537 ft 445 kts 180°
2026-04-26 13:51 51.49627 -1.06057 28872 ft 449 kts 180°
2026-04-26 13:51 51.46487 -1.05828 29194 ft 453 kts 180°
2026-04-26 13:51 51.43362 -1.05611 29520 ft 456 kts 180°
2026-04-26 13:52 51.40144 -1.05398 29816 ft 461 kts 181°
2026-04-26 13:52 51.36973 -1.05201 30029 ft 466 kts 181°
2026-04-26 13:52 51.33702 -1.05007 30264 ft 471 kts 181°
2026-04-26 13:52 51.30434 -1.04800 30782 ft 469 kts 179°
2026-04-26 13:53 51.27217 -1.04313 31299 ft 469 kts 175°
2026-04-26 13:53 51.24034 -1.03331 31768 ft 470 kts 169°
2026-04-26 13:53 51.20875 -1.01808 32191 ft 471 kts 163°
2026-04-26 13:53 51.17858 -0.99860 32894 ft 466 kts 159°
2026-04-26 13:54 51.14974 -0.97723 33698 ft 457 kts 157°
2026-04-26 13:54 51.12135 -0.95516 34208 ft 454 kts 157°
2026-04-26 13:54 51.09333 -0.93315 34591 ft 453 kts 157°
2026-04-26 13:55 51.03727 -0.88988 35268 ft 448 kts 158°
2026-04-26 13:55 51.01843 -0.87568 35278 ft 451 kts 158°
2026-04-26 13:56 50.92286 -0.80557 35273 ft 454 kts 158°
2026-04-26 13:56 50.86579 -0.76417 35276 ft 455 kts 157°
2026-04-26 13:57 50.81056 -0.71533 35275 ft 457 kts 151°
2026-04-26 13:57 50.75733 -0.66080 35281 ft 459 kts 149°
2026-04-26 13:58 50.70428 -0.60529 35274 ft 458 kts 149°
2026-04-26 13:58 50.65125 -0.55050 35272 ft 458 kts 149°
2026-04-26 13:59 50.59769 -0.49591 35275 ft 459 kts 150°
2026-04-26 13:59 50.54434 -0.44201 35276 ft 459 kts 150°
2026-04-26 14:00 50.43696 -0.33426 35267 ft 459 kts 151°
2026-04-26 14:01 50.38368 -0.28106 35263 ft 458 kts 151°
2026-04-26 14:01 50.32969 -0.22732 35255 ft 459 kts 151°
2026-04-26 14:02 50.27625 -0.17424 35260 ft 460 kts 150°
2026-04-26 14:02 50.22218 -0.12072 35263 ft 459 kts 150°
2026-04-26 14:03 50.16856 -0.06776 35263 ft 459 kts 150°
2026-04-26 14:03 50.11418 -0.01647 35257 ft 458 kts 155°
2026-04-26 14:04 50.05538 0.02021 35258 ft 453 kts 166°
2026-04-26 14:04 49.99497 0.04508 35256 ft 452 kts 169°
2026-04-26 14:05 49.93391 0.06767 35255 ft 452 kts 170°
2026-04-26 14:05 49.87289 0.09040 35255 ft 453 kts 169°
2026-04-26 14:06 49.81152 0.11372 35251 ft 452 kts 169°
2026-04-26 14:06 49.75051 0.13720 35244 ft 454 kts 169°
2026-04-26 14:07 49.68972 0.16073 35248 ft 453 kts 169°
2026-04-26 14:07 49.62842 0.18493 35245 ft 454 kts 168°
2026-04-26 14:08 49.56785 0.20937 35247 ft 454 kts 168°
2026-04-26 14:08 49.50649 0.23416 35243 ft 455 kts 168°
2026-04-26 14:09 49.44541 0.25875 35245 ft 453 kts 168°
2026-04-26 14:09 49.38454 0.28312 35246 ft 455 kts 168°
2026-04-26 14:10 49.32346 0.30747 35237 ft 456 kts 168°
2026-04-26 14:10 49.26209 0.33242 35231 ft 456 kts 168°
2026-04-26 14:11 49.17036 0.37127 35228 ft 457 kts 167°
2026-04-26 14:11 49.10937 0.39711 35226 ft 457 kts 167°
2026-04-26 14:12 49.04847 0.42275 35221 ft 457 kts 167°
2026-04-26 14:12 48.98708 0.44844 35219 ft 458 kts 167°
2026-04-26 14:13 48.89499 0.48680 35218 ft 458 kts 167°
2026-04-26 14:14 48.83337 0.51239 35219 ft 458 kts 167°
2026-04-26 14:14 48.77210 0.53770 35220 ft 458 kts 168°
2026-04-26 14:15 48.71076 0.56205 35216 ft 458 kts 168°
2026-04-26 14:15 48.64914 0.58600 35214 ft 459 kts 168°
2026-04-26 14:16 48.58761 0.60982 35215 ft 459 kts 168°
2026-04-26 14:16 48.52572 0.63383 35212 ft 460 kts 168°
2026-04-26 14:17 48.46402 0.65833 35210 ft 460 kts 168°
2026-04-26 14:17 48.40221 0.68354 35211 ft 460 kts 168°
2026-04-26 14:18 48.34066 0.70866 35208 ft 462 kts 168°
2026-04-26 14:18 48.27866 0.73384 35208 ft 461 kts 168°
2026-04-26 14:19 48.21674 0.75877 35208 ft 461 kts 168°
2026-04-26 14:19 48.15502 0.78312 35207 ft 462 kts 168°
2026-04-26 14:20 48.09312 0.80734 35208 ft 462 kts 168°
2026-04-26 14:20 48.03087 0.83165 35203 ft 463 kts 168°
2026-04-26 14:21 47.96875 0.85588 35205 ft 464 kts 168°
2026-04-26 14:21 47.90589 0.88035 35195 ft 466 kts 168°
2026-04-26 14:22 47.84377 0.90451 35193 ft 465 kts 168°
2026-04-26 14:22 47.78114 0.92880 35192 ft 465 kts 168°
2026-04-26 14:23 47.71878 0.95293 35188 ft 466 kts 168°
2026-04-26 14:23 47.65614 0.97710 35182 ft 466 kts 168°
2026-04-26 14:24 47.59336 1.00126 35183 ft 468 kts 168°
2026-04-26 14:24 47.53022 1.02550 35184 ft 467 kts 168°
2026-04-26 14:25 47.46742 1.04926 35180 ft 468 kts 169°
2026-04-26 14:25 47.40369 1.06454 35179 ft 464 kts 179°
2026-04-26 14:26 47.33924 1.06617 35177 ft 463 kts 184°
2026-04-26 14:26 47.27515 1.06364 35174 ft 463 kts 184°
2026-04-26 14:27 47.21067 1.06084 35168 ft 462 kts 184°
2026-04-26 14:27 47.14632 1.05849 35167 ft 465 kts 184°
2026-04-26 14:28 47.08194 1.05656 35171 ft 465 kts 184°
2026-04-26 14:28 47.01720 1.05486 35162 ft 467 kts 184°
2026-04-26 14:29 46.95294 1.05249 35162 ft 464 kts 184°
2026-04-26 14:29 46.88810 1.04954 35157 ft 465 kts 184°
2026-04-26 14:30 46.82330 1.04657 35156 ft 466 kts 184°
2026-04-26 14:30 46.75882 1.04368 35156 ft 466 kts 184°
2026-04-26 14:31 46.69419 1.04087 35153 ft 468 kts 184°
2026-04-26 14:31 46.62878 1.03807 35153 ft 468 kts 184°
2026-04-26 14:32 46.56394 1.03540 35154 ft 467 kts 183°
2026-04-26 14:32 46.49912 1.03936 35155 ft 470 kts 174°
2026-04-26 14:33 46.43498 1.05668 35154 ft 472 kts 168°
2026-04-26 14:33 46.37136 1.07881 35156 ft 472 kts 167°
2026-04-26 14:34 46.30729 1.10160 35159 ft 473 kts 167°
2026-04-26 14:34 46.24391 1.12354 35160 ft 472 kts 168°
2026-04-26 14:35 46.17951 1.14528 35160 ft 473 kts 168°
2026-04-26 14:35 46.11595 1.16645 35160 ft 473 kts 168°
2026-04-26 14:36 46.05177 1.18767 35162 ft 474 kts 168°
2026-04-26 14:36 45.98777 1.20874 35164 ft 474 kts 168°
2026-04-26 14:37 45.92358 1.22984 35167 ft 474 kts 168°
2026-04-26 14:37 45.85917 1.25095 35166 ft 474 kts 168°
2026-04-26 14:38 45.79524 1.27184 35164 ft 473 kts 168°
2026-04-26 14:38 45.73095 1.29282 35161 ft 474 kts 167°
2026-04-26 14:39 45.66703 1.31363 35152 ft 473 kts 167°
2026-04-26 14:39 45.60310 1.33439 35153 ft 474 kts 167°
2026-04-26 14:40 45.53879 1.35523 35152 ft 473 kts 167°
2026-04-26 14:40 45.47443 1.37603 35148 ft 473 kts 167°
2026-04-26 14:41 45.41028 1.39671 35143 ft 473 kts 167°
2026-04-26 14:41 45.34645 1.41724 35142 ft 473 kts 167°
2026-04-26 14:42 45.28218 1.43787 35136 ft 473 kts 167°
2026-04-26 14:42 45.21787 1.45847 35130 ft 473 kts 167°
2026-04-26 14:43 45.15401 1.47887 35139 ft 473 kts 167°
2026-04-26 14:43 45.08973 1.49937 35134 ft 473 kts 167°
2026-04-26 14:44 45.02599 1.51964 35136 ft 472 kts 167°
2026-04-26 14:44 44.96189 1.53998 35132 ft 471 kts 167°
2026-04-26 14:45 44.89802 1.56018 35130 ft 472 kts 167°
2026-04-26 14:45 44.83396 1.58042 35117 ft 472 kts 167°
2026-04-26 14:46 44.76987 1.60062 35116 ft 472 kts 167°
2026-04-26 14:46 44.70563 1.62082 35119 ft 472 kts 167°
2026-04-26 14:47 44.64201 1.64078 35114 ft 472 kts 167°
2026-04-26 14:47 44.57786 1.66085 35111 ft 471 kts 168°
2026-04-26 14:48 44.51384 1.68084 35114 ft 471 kts 167°
2026-04-26 14:48 44.44999 1.70074 35114 ft 471 kts 168°
2026-04-26 14:49 44.38618 1.72058 35113 ft 471 kts 168°
2026-04-26 14:49 44.32256 1.74032 35114 ft 470 kts 168°
2026-04-26 14:50 44.25846 1.75904 35107 ft 471 kts 170°
2026-04-26 14:50 44.19389 1.77359 35107 ft 471 kts 172°
2026-04-26 14:51 44.12894 1.78702 35102 ft 472 kts 172°
2026-04-26 14:51 44.06422 1.80053 35100 ft 472 kts 172°
2026-04-26 14:52 43.99984 1.81428 35102 ft 470 kts 171°
2026-04-26 14:52 43.93531 1.82783 35100 ft 469 kts 173°
2026-04-26 14:53 43.87023 1.83577 35099 ft 469 kts 177°
2026-04-26 14:53 43.80494 1.84096 35099 ft 469 kts 178°
2026-04-26 14:54 43.74030 1.84611 35094 ft 468 kts 177°
2026-04-26 14:54 43.67558 1.85169 35098 ft 466 kts 177°
2026-04-26 14:55 43.61103 1.85759 35102 ft 465 kts 177°
2026-04-26 14:55 43.54644 1.86367 35099 ft 466 kts 177°
2026-04-26 14:56 43.48200 1.86983 35102 ft 464 kts 177°
2026-04-26 14:56 43.41774 1.87598 35105 ft 464 kts 177°
2026-04-26 14:57 43.35368 1.88211 35107 ft 461 kts 177°
2026-04-26 14:57 43.28995 1.88821 35110 ft 460 kts 177°
2026-04-26 14:58 43.22585 1.89434 35109 ft 459 kts 177°
2026-04-26 14:58 43.16222 1.90040 35115 ft 459 kts 177°
2026-04-26 14:59 43.09864 1.90646 35120 ft 458 kts 177°
2026-04-26 14:59 43.03526 1.91248 35126 ft 458 kts 177°
2026-04-26 15:00 42.97177 1.91850 35127 ft 458 kts 178°
2026-04-26 15:00 42.90826 1.92451 35138 ft 457 kts 178°
2026-04-26 15:01 42.84495 1.93048 35149 ft 455 kts 177°
2026-04-26 15:01 42.78169 1.93644 35165 ft 455 kts 177°
2026-04-26 15:02 42.71871 1.94339 35177 ft 456 kts 173°
2026-04-26 15:02 42.65834 1.96901 35185 ft 458 kts 152°
2026-04-26 15:03 42.60643 2.01894 35185 ft 459 kts 142°
2026-04-26 15:03 42.55737 2.07412 35194 ft 459 kts 140°
2026-04-26 15:04 42.50873 2.13002 35195 ft 460 kts 140°
2026-04-26 15:04 42.46006 2.18549 35197 ft 458 kts 141°
2026-04-26 15:05 42.41114 2.24067 35192 ft 459 kts 141°
2026-04-26 15:05 42.36229 2.29537 35178 ft 458 kts 141°
2026-04-26 15:06 42.31325 2.35004 35167 ft 459 kts 141°
2026-04-26 15:06 42.26417 2.40459 35148 ft 458 kts 141°
2026-04-26 15:07 42.19021 2.48656 35129 ft 459 kts 141°
2026-04-26 15:07 42.14122 2.54069 35131 ft 457 kts 141°
2026-04-26 15:08 42.09214 2.59481 35129 ft 456 kts 141°
2026-04-26 15:08 42.04310 2.64879 35130 ft 456 kts 141°
2026-04-26 15:09 41.99416 2.70253 35119 ft 456 kts 142°
2026-04-26 15:09 41.94485 2.75658 35113 ft 457 kts 142°
2026-04-26 15:10 41.90380 2.80019 35115 ft 455 kts 144°
2026-04-26 15:10 41.84376 2.85781 35110 ft 455 kts 146°
2026-04-26 15:11 41.79176 2.90639 35107 ft 455 kts 146°
2026-04-26 15:11 41.73998 2.95494 35104 ft 453 kts 146°
2026-04-26 15:12 41.68891 3.00310 35104 ft 452 kts 146°
2026-04-26 15:12 41.63742 3.05177 35104 ft 453 kts 146°
2026-04-26 15:13 41.58644 3.10000 35107 ft 452 kts 146°
2026-04-26 15:13 41.53497 3.14864 34986 ft 455 kts 146°
2026-04-26 15:14 41.50924 3.17290 34744 ft 454 kts 146°
2026-04-26 15:14 41.48365 3.19683 34483 ft 452 kts 147°
2026-04-26 15:14 41.45734 3.21990 34196 ft 451 kts 148°
2026-04-26 15:14 41.43067 3.24205 33868 ft 451 kts 149°
2026-04-26 15:15 41.40416 3.26355 33196 ft 451 kts 149°
2026-04-26 15:15 41.37722 3.28518 32535 ft 449 kts 149°
2026-04-26 15:15 41.35100 3.30622 32036 ft 444 kts 149°
2026-04-26 15:15 41.32455 3.32749 31469 ft 440 kts 149°
2026-04-26 15:16 41.29862 3.34842 30907 ft 437 kts 148°
2026-04-26 15:16 41.27284 3.36930 30336 ft 434 kts 148°
2026-04-26 15:16 41.24734 3.38999 29768 ft 431 kts 148°
2026-04-26 15:16 41.22196 3.41048 29210 ft 434 kts 149°
2026-04-26 15:17 41.19589 3.43126 28627 ft 440 kts 149°
2026-04-26 15:17 41.17836 3.44523 28232 ft 445 kts 149°
2026-04-26 15:17 41.14284 3.47362 27430 ft 453 kts 148°
2026-04-26 15:17 41.11553 3.49549 26818 ft 459 kts 148°
2026-04-26 15:18 41.08883 3.51714 26187 ft 451 kts 148°
2026-04-26 15:18 41.06258 3.53867 25605 ft 437 kts 147°
2026-04-26 15:18 41.03706 3.55965 25017 ft 425 kts 147°
2026-04-26 15:18 41.01232 3.57999 24445 ft 413 kts 147°
2026-04-26 15:19 40.98858 3.59943 23900 ft 399 kts 147°
2026-04-26 15:19 40.96520 3.61850 23370 ft 386 kts 147°
2026-04-26 15:19 40.94262 3.63688 22870 ft 381 kts 147°
2026-04-26 15:19 40.92007 3.65518 22327 ft 379 kts 148°
2026-04-26 15:20 40.89796 3.67307 21811 ft 376 kts 148°
2026-04-26 15:20 40.87573 3.69103 21298 ft 374 kts 148°
2026-04-26 15:20 40.85344 3.70900 20780 ft 372 kts 148°
2026-04-26 15:20 40.83156 3.72662 20271 ft 369 kts 148°
2026-04-26 15:21 40.80985 3.74408 19757 ft 367 kts 148°
2026-04-26 15:21 40.78807 3.76157 19254 ft 365 kts 148°
2026-04-26 15:21 40.76660 3.77880 18749 ft 362 kts 148°
2026-04-26 15:21 40.74503 3.79611 18237 ft 360 kts 148°
2026-04-26 15:22 40.72376 3.81316 17739 ft 357 kts 148°
2026-04-26 15:22 40.70272 3.83002 17241 ft 355 kts 148°
2026-04-26 15:22 40.68166 3.84687 16752 ft 353 kts 148°
2026-04-26 15:22 40.66103 3.86337 16262 ft 350 kts 148°
2026-04-26 15:23 40.64018 3.88003 15758 ft 348 kts 148°
2026-04-26 15:23 40.61962 3.89645 15268 ft 346 kts 148°
2026-04-26 15:23 40.59906 3.91285 14774 ft 343 kts 147°
2026-04-26 15:23 40.57893 3.92890 14294 ft 341 kts 147°
2026-04-26 15:24 40.55880 3.94493 13819 ft 339 kts 147°
2026-04-26 15:24 40.53860 3.96101 13331 ft 337 kts 147°
2026-04-26 15:24 40.51868 3.97686 12851 ft 335 kts 147°
2026-04-26 15:24 40.49837 3.99177 12361 ft 333 kts 154°
2026-04-26 15:25 40.47709 4.00246 11926 ft 330 kts 162°
2026-04-26 15:25 40.46247 4.00789 11694 ft 327 kts 164°
2026-04-26 15:25 40.43324 4.01728 11122 ft 323 kts 165°
2026-04-26 15:25 40.41148 4.02418 10675 ft 322 kts 165°
2026-04-26 15:26 40.38985 4.03132 10402 ft 313 kts 165°
2026-04-26 15:26 40.36918 4.03838 10303 ft 300 kts 164°
2026-04-26 15:26 40.34933 4.04531 10135 ft 291 kts 164°
2026-04-26 15:26 40.32988 4.05218 9757 ft 289 kts 164°
2026-04-26 15:27 40.31054 4.05905 9387 ft 288 kts 164°
2026-04-26 15:27 40.29134 4.06586 9045 ft 286 kts 164°
2026-04-26 15:27 40.27240 4.07257 8694 ft 284 kts 164°
2026-04-26 15:27 40.25319 4.07937 8326 ft 282 kts 163°
2026-04-26 15:28 40.23456 4.08595 7982 ft 280 kts 163°
2026-04-26 15:28 40.21570 4.09262 7635 ft 278 kts 163°
2026-04-26 15:28 40.19722 4.09914 7285 ft 276 kts 163°
2026-04-26 15:28 40.17874 4.10566 6940 ft 274 kts 163°
2026-04-26 15:29 40.16022 4.11218 6590 ft 272 kts 163°
2026-04-26 15:29 40.14223 4.11852 6228 ft 271 kts 163°
2026-04-26 15:29 40.10600 4.13128 5558 ft 267 kts 163°
2026-04-26 15:30 40.07717 4.15666 4932 ft 253 kts 110°
2026-04-26 15:30 40.07527 4.17893 4657 ft 244 kts 81°
2026-04-26 15:30 40.07815 4.20046 4386 ft 240 kts 80°
2026-04-26 15:31 40.07991 4.22158 4287 ft 229 kts 86°
2026-04-26 15:31 40.07787 4.26043 4172 ft 202 kts 98°
2026-04-26 15:31 40.07481 4.27796 4059 ft 191 kts 110°
2026-04-26 15:32 40.05854 4.29537 3926 ft 194 kts 172°
2026-04-26 15:32 40.04048 4.29179 3815 ft 199 kts 193°
2026-04-26 15:32 40.02699 4.28729 3461 ft 202 kts 192°
2026-04-26 15:33 40.01365 4.28297 3202 ft 199 kts 192°
2026-04-26 15:33 40.00037 4.27754 2920 ft 197 kts 200°
2026-04-26 15:33 39.98819 4.26958 2639 ft 196 kts 208°
2026-04-26 15:33 39.97666 4.26051 2403 ft 190 kts 210°
2026-04-26 15:34 39.96569 4.25170 2204 ft 182 kts 209°
2026-04-26 15:34 39.95521 4.24355 1975 ft 168 kts 207°
2026-04-26 15:34 39.94499 4.23685 1748 ft 163 kts 200°
2026-04-26 15:34 39.93420 4.23280 1480 ft 161 kts 188°
2026-04-26 15:35 39.92313 4.23081 1325 ft 156 kts 183°
2026-04-26 15:35 39.91224 4.22900 1073 ft 161 kts 187°
2026-04-26 15:35 39.90121 4.22653 911 ft 158 kts 186°
2026-04-26 15:35 39.89035 4.22440 672 ft 161 kts 185°
2026-04-26 15:36 39.87932 4.22207 480 ft 158 kts 186°
2026-04-26 15:36 39.86859 4.21988 297 ft 152 kts 187°
2026-04-26 15:36 39.86020 4.21817 286 ft 87 kts 189°
2026-04-26 15:36 39.85629 4.21757 279 ft 35 kts 173°
2026-04-26 15:37 39.85436 4.21832 274 ft 18 kts 158°
2026-04-26 15:37 39.85414 4.21929 273 ft 10 kts 26°
2026-04-26 15:37 39.85432 4.21934 273 ft 0 kts
2026-04-26 15:39 39.85451 4.21938 273 ft 7 kts
2026-04-26 15:39 39.85533 4.21955 274 ft 16 kts
2026-04-26 15:39 39.85674 4.21984 277 ft 22 kts
2026-04-26 15:39 39.85773 4.22005 278 ft 21 kts
2026-04-26 15:40 39.85954 4.22041 281 ft 18 kts
2026-04-26 15:40 39.86077 4.22066 280 ft 17 kts
2026-04-26 15:40 39.86188 4.22106 278 ft 16 kts 51°
2026-04-26 15:40 39.86187 4.22240 275 ft 14 kts 65°
2026-04-26 15:41 39.86277 4.22278 275 ft 13 kts
2026-04-26 15:41 39.86370 4.22297 274 ft 13 kts
2026-04-26 15:41 39.86456 4.22314 276 ft 13 kts
2026-04-26 15:41 39.86531 4.22331 277 ft 6 kts 23°
2026-04-26 15:42 39.86536 4.22380 276 ft 6 kts 106°
2026-04-26 15:42 39.86530 4.22415 275 ft 2 kts 98°
2026-04-26 15:42 39.86530 4.22423 275 ft 0 kts 98°